Location: Biharia
(46.4333°N, 22.8000°E)
Time: 17:53:32
(UTC+00:00)

FENGYUN 1C DEB - Pass Details

Date: 17 August 2022
Orbit: 796 x 915 km, 98.9° (Epoch: 24 September)

Event Time Altitude Azimuth Distance (km) Brightness Sun altitude
Rises 01:29:37 0° 358° (N) 3,434 ? -18.2°
Reaches altitude 10° 01:34:04 10° 324° (NW) 2,459 ? -17.6°
Maximum altitude 01:35:24 11° 310° (NW) 2,383 ? -17.5°
Drops below altitude 10° 01:36:44 10° 295° (WNW) 2,438 ? -17.3°
Enters shadow 01:37:52 - 284° (WNW) 2,581 ? -17.2°
